Regional Weather Roundup
Issued by NWS Little Rock, AR

Home | Current Version | Previous Version | Graphics & Text | Print | Product List | Glossary On
Versions: 1 2 3 4 5 6 7 8 9 10 11 12 13 14 15 16 17 18 19 20 21 22 23 24 25 26 27 28 29 30 31 32
000
ASUS44 KLZK 220605
RWRLZK

WEATHER ROUNDUP FOR ARKANSAS
NATIONAL WEATHER SERVICE LITTLE ROCK AR
100 AM CDT THU JUN 22 2017

NOTE: "FAIR" INDICATES FEW OR NO CLOUDS BELOW 12,000 FEET WITH NO
SIGNIFICANT WEATHER AND/OR OBSTRUCTIONS TO VISIBILITY.

ARZ001-003-010-029-220700-
NORTHWEST ARKANSAS

CITY           SKY/WX    TMP DP  RH WIND       PRES   REMARKS
FAYETTEVILLE   MOCLDY    66  65  96 CALM      29.89R
6HR MIN TEMP:  65; 6HR MAX TEMP:  79;

FORT SMITH     CLOUDY    76  70  82 NE6       29.83F
6HR MIN TEMP:  76; 6HR MAX TEMP:  84;

HARRISON       MOCLDY    71  68  90 SE9       29.90S
6HR MIN TEMP:  71; 6HR MAX TEMP:  80;

BENTONVILLE    CLEAR     70  63  78 CALM      29.91S
6HR MIN TEMP:  70; 6HR MAX TEMP:  82;

ROGERS         CLEAR     66  65  96 NW3       29.90F
6HR MIN TEMP:  66; 6HR MAX TEMP:  82;

SILOAM SPGS    CLEAR     68  63  83 NE3       29.88F
6HR MIN TEMP:  66; 6HR MAX TEMP:  79;

HIGHFILL       CLEAR     70  65  84 CALM      29.89F
6HR MIN TEMP:  68; 6HR MAX TEMP:  83;

$$

ARZ004-005-016-220700-
NORTH CENTRAL ARKANSAS

CITY           SKY/WX    TMP DP  RH WIND       PRES   REMARKS
BATESVILLE     CLOUDY    73  70  88 E7        29.89F
6HR MIN TEMP:  73; 6HR MAX TEMP:  82;

FLIPPIN        CLOUDY    73  64  73 CALM      29.87S
MTN HOME       CLOUDY    72  68  87 CALM      29.90S
6HR MIN TEMP:  71; 6HR MAX TEMP:  80;

$$

ARZ040-041-220700-
WEST CENTRAL ARKANSAS

CITY           SKY/WX    TMP DP  RH WIND       PRES   REMARKS
MENA           CLOUDY    73  73 100 E6        29.85F
MOUNT IDA      CLOUDY    74  71  91 VRB3      29.81F
6HR MIN TEMP:  73; 6HR MAX TEMP:  81; 6HR PCP: TRACE;

$$

ARZ009-017-025-026-028-220700-
NORTHEAST ARKANSAS

CITY           SKY/WX    TMP DP  RH WIND       PRES   REMARKS
CORNING        CLOUDY    77  72  83 SE9       29.91F
JONESBORO      CLOUDY    78  71  79 SE8       29.90S
6HR MIN TEMP:  78; 6HR MAX TEMP:  85;

WALNUT RIDGE   CLOUDY    77  66  69 SE14      29.90F
6HR MIN TEMP:  77; 6HR MAX TEMP:  84;

BLYTHEVILLE    CLOUDY    77  71  82 SE10      29.92F
6HR MIN TEMP:  77; 6HR MAX TEMP:  84;

$$

ARZ022-023-033-042-044-220700-
CENTRAL ARKANSAS

CITY           SKY/WX    TMP DP  RH WIND       PRES   REMARKS
LITTLE ROCK    CLOUDY    74  73  97 E10       29.85F
6HR MIN TEMP:  73; 6HR MAX TEMP:  81; 6HR PCP: TRACE;

N LITTLE ROCK    N/A     74  71  91 E8        29.84F
6HR MIN TEMP:  73; 6HR MAX TEMP:  80;

JACKSONVILLE   CLOUDY    74  74  99 SE7       29.85F
6HR MIN TEMP:  74; 6HR MAX TEMP:  81; 6HR PCP:  0.01;

CONWAY           N/A     77  72  83 SE8       29.83F
SEARCY         CLOUDY    75  73  93 SE7       29.89F
6HR MIN TEMP:  75; 6HR MAX TEMP:  79;

HOT SPRINGS    CLOUDY    75  50  41 E8        29.83F
6HR MIN TEMP:  74; 6HR MAX TEMP:  81; 6HR PCP: TRACE;

RUSSELLVILLE   CLOUDY    75  71  87 CALM      29.84F
6HR MIN TEMP:  75; 6HR MAX TEMP:  82;

CLINTON        CLOUDY    75  72  88 VRB3      29.88S FOG
$$

ARZ036-220700-
EAST ARKANSAS

CITY           SKY/WX    TMP DP  RH WIND       PRES   REMARKS
WEST MEMPHIS   CLOUDY    74  74 100 SE10      29.89S
6HR MIN TEMP:  73; 6HR MAX TEMP:  82; 6HR PCP:  0.09;

$$

ARZ050-053-066-070-073-220700-
SOUTHWEST ARKANSAS

CITY           SKY/WX    TMP DP  RH WIND       PRES   REMARKS
ARKADELPHIA    CLOUDY    75  73  93 NE5       29.82F
6HR MIN TEMP:  75; 6HR MAX TEMP:  80;

CAMDEN         CLOUDY    75  70  83 E9        29.79F
TEXARKANA      CLOUDY    74  73  97 NE9       29.78S
6HR MIN TEMP:  74; 6HR MAX TEMP:  80; 6HR PCP: TRACE;

EL DORADO      CLOUDY    74  73  97 NE12      29.78F
6HR MIN TEMP:  74; 6HR MAX TEMP:  75; 6HR PCP:  0.01;

DE QUEEN       CLOUDY    76  73  91 E8        29.78F
6HR MIN TEMP:  76; 6HR MAX TEMP:  82; 6HR PCP: TRACE;

$$

ARZ056-057-069-220700-
SOUTHEAST ARKANSAS

CITY           SKY/WX    TMP DP  RH WIND       PRES   REMARKS
PINE BLUFF     LGT RAIN  75  72  90 E13       29.83F
6HR MIN TEMP:  74; 6HR MAX TEMP:  77; 6HR PCP:  0.01;

STUTTGART      CLOUDY    75  63  64 E10       29.86F
6HR MIN TEMP:  75; 6HR MAX TEMP:  81;

MONTICELLO     CLOUDY    75  73  93 E10       29.81F
6HR MIN TEMP:  74; 6HR MAX TEMP:  75; 6HR PCP:  0.07;


$$






USA.gov is the U.S. government's official web portal to all federal, state and local government web resources and services.